Year,Month,Day,Hour,Minute,Value (Times are PST for temperature in C)
2009,08,07,00,00,14.80
2009,08,07,00,01,14.80
2009,08,07,00,02,14.70
2009,08,07,00,03,14.70
2009,08,07,00,04,14.70
2009,08,07,00,05,14.60
2009,08,07,00,06,14.60
2009,08,07,00,07,14.60
2009,08,07,00,08,14.60
2009,08,07,00,09,14.50
2009,08,07,00,10,14.50
2009,08,07,00,11,14.40
2009,08,07,00,12,14.40
2009,08,07,00,13,14.30
2009,08,07,00,14,14.30
2009,08,07,00,15,14.30
2009,08,07,00,16,14.30
2009,08,07,00,17,14.30
2009,08,07,00,18,14.30
2009,08,07,00,19,14.30
2009,08,07,00,20,14.20
2009,08,07,00,21,14.20
2009,08,07,00,22,14.20
2009,08,07,00,23,14.20
2009,08,07,00,24,14.20
2009,08,07,00,25,14.20
2009,08,07,00,26,14.10
2009,08,07,00,27,14.10
2009,08,07,00,28,14.10
2009,08,07,00,29,14.10
2009,08,07,00,30,14.10
2009,08,07,00,31,14.10
2009,08,07,00,32,14.10
2009,08,07,00,33,14.00
2009,08,07,00,34,14.00
2009,08,07,00,35,14.00
2009,08,07,00,36,14.00
2009,08,07,00,37,14.00
2009,08,07,00,38,14.00
2009,08,07,00,39,14.00
2009,08,07,00,40,14.00
2009,08,07,00,41,14.00
2009,08,07,00,42,14.10
2009,08,07,00,43,14.10
2009,08,07,00,44,14.10
2009,08,07,00,45,14.10
2009,08,07,00,46,14.20
2009,08,07,00,47,14.20
2009,08,07,00,48,14.20
2009,08,07,00,49,14.20
2009,08,07,00,50,14.20
2009,08,07,00,51,14.20
2009,08,07,00,52,14.20
2009,08,07,00,53,14.10
2009,08,07,00,54,14.10
2009,08,07,00,55,14.10
2009,08,07,00,56,14.10
2009,08,07,00,57,14.10
2009,08,07,00,58,14.10
2009,08,07,00,59,14.10
2009,08,07,01,00,14.10
2009,08,07,01,01,14.10
2009,08,07,01,02,14.10
2009,08,07,01,03,14.00
2009,08,07,01,04,14.00
2009,08,07,01,05,14.00
2009,08,07,01,06,13.90
2009,08,07,01,07,13.90
2009,08,07,01,08,13.90
2009,08,07,01,09,13.90
2009,08,07,01,10,13.90
2009,08,07,01,11,13.80
2009,08,07,01,12,13.80
2009,08,07,01,13,13.80
2009,08,07,01,14,13.80
2009,08,07,01,15,13.80
2009,08,07,01,16,13.80
2009,08,07,01,17,13.80
2009,08,07,01,18,13.80
2009,08,07,01,19,13.90
2009,08,07,01,20,13.90
2009,08,07,01,21,13.90
2009,08,07,01,22,13.90
2009,08,07,01,23,13.90
2009,08,07,01,24,13.90
2009,08,07,01,25,13.90
2009,08,07,01,26,13.80
2009,08,07,01,27,13.80
2009,08,07,01,28,13.80
2009,08,07,01,29,13.80
2009,08,07,01,30,13.80
2009,08,07,01,31,13.80
2009,08,07,01,32,13.80
2009,08,07,01,33,13.70
2009,08,07,01,34,13.70
2009,08,07,01,35,13.70
2009,08,07,01,36,13.60
2009,08,07,01,37,13.60
2009,08,07,01,38,13.60
2009,08,07,01,39,13.60
2009,08,07,01,40,13.60
2009,08,07,01,41,13.50
2009,08,07,01,42,13.50
2009,08,07,01,43,13.50
2009,08,07,01,44,13.50
2009,08,07,01,45,13.50
2009,08,07,01,46,13.40
2009,08,07,01,47,13.40
2009,08,07,01,48,13.40
2009,08,07,01,49,13.40
2009,08,07,01,50,13.40
2009,08,07,01,51,13.30
2009,08,07,01,52,13.30
2009,08,07,01,53,13.30
2009,08,07,01,54,13.20
2009,08,07,01,55,13.20
2009,08,07,01,56,13.10
2009,08,07,01,57,13.10
2009,08,07,01,58,13.00
2009,08,07,01,59,12.90
2009,08,07,02,00,12.90
2009,08,07,02,01,12.80
2009,08,07,02,02,12.80
2009,08,07,02,03,12.70
2009,08,07,02,04,12.70
2009,08,07,02,05,12.60
2009,08,07,02,06,12.60
2009,08,07,02,07,12.50
2009,08,07,02,08,12.50
2009,08,07,02,09,12.40
2009,08,07,02,10,12.40
2009,08,07,02,11,12.30
2009,08,07,02,12,12.30
2009,08,07,02,13,12.20
2009,08,07,02,14,12.20
2009,08,07,02,15,12.10
2009,08,07,02,16,12.10
2009,08,07,02,17,12.00
2009,08,07,02,18,12.00
2009,08,07,02,19,11.90
2009,08,07,02,20,11.90
2009,08,07,02,21,11.80
2009,08,07,02,22,11.80
2009,08,07,02,23,11.70
2009,08,07,02,24,11.70
2009,08,07,02,25,11.60
2009,08,07,02,26,11.60
2009,08,07,02,27,11.50
2009,08,07,02,28,11.50
2009,08,07,02,29,11.40
2009,08,07,02,30,11.40
2009,08,07,02,31,11.40
2009,08,07,02,32,11.30
2009,08,07,02,33,11.30
2009,08,07,02,34,11.30
2009,08,07,02,35,11.20
2009,08,07,02,36,11.20
2009,08,07,02,37,11.20
2009,08,07,02,38,11.20
2009,08,07,02,39,11.20
2009,08,07,02,40,11.10
2009,08,07,02,41,11.10
2009,08,07,02,42,11.10
2009,08,07,02,43,11.10
2009,08,07,02,44,11.00
2009,08,07,02,45,11.00
2009,08,07,02,46,11.00
2009,08,07,02,47,10.90
2009,08,07,02,48,10.90
2009,08,07,02,49,10.90
2009,08,07,02,50,10.90
2009,08,07,02,51,10.80
2009,08,07,02,52,10.80
2009,08,07,02,53,10.80
2009,08,07,02,54,10.80
2009,08,07,02,55,10.80
2009,08,07,02,56,10.80
2009,08,07,02,57,10.70
2009,08,07,02,58,10.70
2009,08,07,02,59,10.70
2009,08,07,03,00,10.70
2009,08,07,03,01,10.70
2009,08,07,03,02,10.60
2009,08,07,03,03,10.60
2009,08,07,03,04,10.60
2009,08,07,03,05,10.60
2009,08,07,03,06,10.50
2009,08,07,03,07,10.50
2009,08,07,03,08,10.50
2009,08,07,03,09,10.50
2009,08,07,03,10,10.40
2009,08,07,03,11,10.40
2009,08,07,03,12,10.40
2009,08,07,03,13,10.40
2009,08,07,03,14,10.30
2009,08,07,03,15,10.30
2009,08,07,03,16,10.30
2009,08,07,03,17,10.30
2009,08,07,03,18,10.30
2009,08,07,03,19,10.30
2009,08,07,03,20,10.20
2009,08,07,03,21,10.20
2009,08,07,03,22,10.20
2009,08,07,03,23,10.20
2009,08,07,03,24,10.20
2009,08,07,03,25,10.20
2009,08,07,03,26,10.20
2009,08,07,03,27,10.10
2009,08,07,03,28,10.10
2009,08,07,03,29,10.10
2009,08,07,03,30,10.10
2009,08,07,03,31,10.10
2009,08,07,03,32,10.10
2009,08,07,03,33,10.10
2009,08,07,03,34,10.00
2009,08,07,03,35,10.00
2009,08,07,03,36,10.00
2009,08,07,03,37,10.00
2009,08,07,03,38,9.90
2009,08,07,03,39,9.90
2009,08,07,03,40,9.90
2009,08,07,03,41,9.90
2009,08,07,03,42,9.90
2009,08,07,03,43,9.90
2009,08,07,03,44,9.90
2009,08,07,03,45,9.80
2009,08,07,03,46,9.80
2009,08,07,03,47,9.80
2009,08,07,03,48,9.80
2009,08,07,03,49,9.80
2009,08,07,03,50,9.80
2009,08,07,03,51,9.80
2009,08,07,03,52,9.80
2009,08,07,03,53,9.80
2009,08,07,03,54,9.70
2009,08,07,03,55,9.70
2009,08,07,03,56,9.70
2009,08,07,03,57,9.70
2009,08,07,03,58,9.70
2009,08,07,03,59,9.70
2009,08,07,04,00,9.70
2009,08,07,04,01,9.70
2009,08,07,04,02,9.70
2009,08,07,04,03,9.70
2009,08,07,04,05,9.70
2009,08,07,04,17,9.60
2009,08,07,04,18,9.60
2009,08,07,04,19,9.60
2009,08,07,04,20,9.60
2009,08,07,04,21,9.60
2009,08,07,04,22,9.60
2009,08,07,04,23,9.60
2009,08,07,04,24,9.60
2009,08,07,04,25,9.50
2009,08,07,04,26,9.50
2009,08,07,04,27,9.50
2009,08,07,04,28,9.50
2009,08,07,04,29,9.50
2009,08,07,04,30,9.40
2009,08,07,04,31,9.40
2009,08,07,04,32,9.40
2009,08,07,04,33,9.40
2009,08,07,04,34,9.40
2009,08,07,04,35,9.40
2009,08,07,04,36,9.40
2009,08,07,04,37,9.30
2009,08,07,04,38,9.30
2009,08,07,04,39,9.30
2009,08,07,04,40,9.30
2009,08,07,04,41,9.30
2009,08,07,04,42,9.30
2009,08,07,04,43,9.30
2009,08,07,04,44,9.30
2009,08,07,04,45,9.30
2009,08,07,04,46,9.30
2009,08,07,04,47,9.30
2009,08,07,04,48,9.30
2009,08,07,04,49,9.20
2009,08,07,04,50,9.20
2009,08,07,04,51,9.20
2009,08,07,04,52,9.20
2009,08,07,04,53,9.20
2009,08,07,04,54,9.20
2009,08,07,04,55,9.20
2009,08,07,04,56,9.20
2009,08,07,04,57,9.20
2009,08,07,04,58,9.20
2009,08,07,04,59,9.20
2009,08,07,05,00,9.20
2009,08,07,05,01,9.20
2009,08,07,05,02,9.20
2009,08,07,05,03,9.20
2009,08,07,05,04,9.20
2009,08,07,05,05,9.20
2009,08,07,05,06,9.20
2009,08,07,05,07,9.20
2009,08,07,05,08,9.20
2009,08,07,05,09,9.30
2009,08,07,05,10,9.30
2009,08,07,05,11,9.30
2009,08,07,05,12,9.30
2009,08,07,05,13,9.20
2009,08,07,05,14,9.20
2009,08,07,05,15,9.20
2009,08,07,05,16,9.20
2009,08,07,05,17,9.20
2009,08,07,05,18,9.20
2009,08,07,05,19,9.20
2009,08,07,05,20,9.20
2009,08,07,05,21,9.20
2009,08,07,05,22,9.20
2009,08,07,05,23,9.20
2009,08,07,05,24,9.20
2009,08,07,05,25,9.20
2009,08,07,05,26,9.20
2009,08,07,05,27,9.10
2009,08,07,05,28,9.10
2009,08,07,05,29,9.10
2009,08,07,05,30,9.10
2009,08,07,05,31,9.10
2009,08,07,05,32,9.10
2009,08,07,05,33,9.10
2009,08,07,05,34,9.10
2009,08,07,05,35,9.10
2009,08,07,05,36,9.10
2009,08,07,05,37,9.10
2009,08,07,05,38,9.10
2009,08,07,05,39,9.10
2009,08,07,05,40,9.10
2009,08,07,05,41,9.10
2009,08,07,05,42,9.10
2009,08,07,05,43,9.00
2009,08,07,05,44,9.00
2009,08,07,05,45,9.00
2009,08,07,05,46,9.00
2009,08,07,05,47,9.00
2009,08,07,05,48,8.90
2009,08,07,05,49,8.90
2009,08,07,05,50,8.90
2009,08,07,05,51,8.90
2009,08,07,05,52,8.90
2009,08,07,05,53,8.90
2009,08,07,05,54,8.90
2009,08,07,05,55,8.90
2009,08,07,05,56,8.90
2009,08,07,05,57,8.90
2009,08,07,05,58,8.90
2009,08,07,05,59,8.90
2009,08,07,06,00,8.90
2009,08,07,06,01,8.90
2009,08,07,06,02,8.80
2009,08,07,06,03,8.80
2009,08,07,06,04,8.80
2009,08,07,06,05,8.80
2009,08,07,06,06,8.80
2009,08,07,06,07,8.80
2009,08,07,06,08,8.80
2009,08,07,06,09,8.90
2009,08,07,06,10,8.90
2009,08,07,06,11,8.90
2009,08,07,06,12,8.90
2009,08,07,06,13,8.90
2009,08,07,06,14,8.80
2009,08,07,06,15,8.90
2009,08,07,06,16,8.90
2009,08,07,06,17,8.80
2009,08,07,06,18,8.80
2009,08,07,06,19,8.80
2009,08,07,06,20,8.80
2009,08,07,06,21,8.80
2009,08,07,06,22,8.80
2009,08,07,06,23,8.80
2009,08,07,06,24,8.80
2009,08,07,06,25,8.80
2009,08,07,06,26,8.80
2009,08,07,06,27,8.80
2009,08,07,06,28,8.80
2009,08,07,06,29,8.80
2009,08,07,06,30,8.80
2009,08,07,06,31,8.80
2009,08,07,06,32,8.80
2009,08,07,06,33,8.80
2009,08,07,06,34,8.80
2009,08,07,06,35,8.80
2009,08,07,06,36,8.80
2009,08,07,06,37,8.90
2009,08,07,06,38,8.90
2009,08,07,06,39,8.90
2009,08,07,06,40,8.90
2009,08,07,06,41,8.90
2009,08,07,06,42,8.90
2009,08,07,06,43,8.90
2009,08,07,06,44,8.90
2009,08,07,06,45,9.00
2009,08,07,06,46,9.00
2009,08,07,06,47,9.00
2009,08,07,06,48,9.00
2009,08,07,06,49,9.00
2009,08,07,06,50,9.10
2009,08,07,06,51,9.10
2009,08,07,06,52,9.10
2009,08,07,06,53,9.10
2009,08,07,06,54,9.10
2009,08,07,06,55,9.10
2009,08,07,06,56,9.10
2009,08,07,06,57,9.10
2009,08,07,06,58,9.20
2009,08,07,06,59,9.20
2009,08,07,07,00,9.20
2009,08,07,07,01,9.20
2009,08,07,07,02,9.20
2009,08,07,07,03,9.20
2009,08,07,07,04,9.20
2009,08,07,07,05,9.30
2009,08,07,07,06,9.30
2009,08,07,07,07,9.30
2009,08,07,07,08,9.30
2009,08,07,07,09,9.30
2009,08,07,07,10,9.30
2009,08,07,07,11,9.30
2009,08,07,07,12,9.30
2009,08,07,07,13,9.40
2009,08,07,07,14,9.40
2009,08,07,07,15,9.40
2009,08,07,07,16,9.50
2009,08,07,07,17,9.50
2009,08,07,07,18,9.50
2009,08,07,07,19,9.60
2009,08,07,07,20,9.60
2009,08,07,07,21,9.60
2009,08,07,07,22,9.60
2009,08,07,07,23,9.70
2009,08,07,07,24,9.70
2009,08,07,07,25,9.70
2009,08,07,07,26,9.70
2009,08,07,07,27,9.80
2009,08,07,07,28,9.80
2009,08,07,07,29,9.80
2009,08,07,07,30,9.80
2009,08,07,07,31,9.90
2009,08,07,07,32,9.90
2009,08,07,07,33,9.90
2009,08,07,07,34,10.00
2009,08,07,07,35,10.00
2009,08,07,07,36,10.00
2009,08,07,07,37,10.10
2009,08,07,07,38,10.10
2009,08,07,07,39,10.20
2009,08,07,07,40,10.20
2009,08,07,07,41,10.20
2009,08,07,07,42,10.30
2009,08,07,07,43,10.30
2009,08,07,07,44,10.30
2009,08,07,07,45,10.40
2009,08,07,07,46,10.40
2009,08,07,07,47,10.40
2009,08,07,07,48,10.50
2009,08,07,07,49,10.50
2009,08,07,07,50,10.60
2009,08,07,07,51,10.60
2009,08,07,07,52,10.70
2009,08,07,07,53,10.70
2009,08,07,07,54,10.70
2009,08,07,07,55,10.80
2009,08,07,07,56,10.80
2009,08,07,07,57,10.80
2009,08,07,07,58,10.90
2009,08,07,07,59,10.90
2009,08,07,08,00,11.00
2009,08,07,08,01,11.00
2009,08,07,08,02,11.10
2009,08,07,08,03,11.10
2009,08,07,08,04,11.20
2009,08,07,08,05,11.20
2009,08,07,08,06,11.20
2009,08,07,08,07,11.30
2009,08,07,08,08,11.30
2009,08,07,08,09,11.40
2009,08,07,08,10,11.40
2009,08,07,08,11,11.50
2009,08,07,08,12,11.60
2009,08,07,08,13,11.60
2009,08,07,08,14,11.70
2009,08,07,08,15,11.70
2009,08,07,08,16,11.80
2009,08,07,08,17,11.80
2009,08,07,08,18,11.90
2009,08,07,08,19,12.00
2009,08,07,08,20,12.10
2009,08,07,08,21,12.10
2009,08,07,08,22,12.20
2009,08,07,08,23,12.30
2009,08,07,08,24,12.40
2009,08,07,08,25,12.50
2009,08,07,08,26,12.50
2009,08,07,08,27,12.60
2009,08,07,08,28,12.70
2009,08,07,08,29,12.80
2009,08,07,08,30,12.90
2009,08,07,08,31,13.00
2009,08,07,08,32,13.10
2009,08,07,08,33,13.20
2009,08,07,08,34,13.20
2009,08,07,08,35,13.30
2009,08,07,08,36,13.40
2009,08,07,08,37,13.50
2009,08,07,08,38,13.60
2009,08,07,08,39,13.60
2009,08,07,08,40,13.70
2009,08,07,08,41,13.70
2009,08,07,08,42,13.70
2009,08,07,08,43,13.80
2009,08,07,08,44,13.80
2009,08,07,08,45,13.80
2009,08,07,08,46,13.90
2009,08,07,08,47,13.90
2009,08,07,08,48,14.00
2009,08,07,08,49,14.00
2009,08,07,08,50,14.10
2009,08,07,08,51,14.10
2009,08,07,08,52,14.10
2009,08,07,08,53,14.10
2009,08,07,08,54,14.10
2009,08,07,08,55,14.10
2009,08,07,08,56,14.10
2009,08,07,08,57,14.10
2009,08,07,08,58,14.20
2009,08,07,08,59,14.20
2009,08,07,09,00,14.20
2009,08,07,09,01,14.20
2009,08,07,09,02,14.30
2009,08,07,09,03,14.30
2009,08,07,09,04,14.30
2009,08,07,09,05,14.40
2009,08,07,09,06,14.50
2009,08,07,09,07,14.50
2009,08,07,09,08,14.60
2009,08,07,09,09,14.70
2009,08,07,09,10,14.80
2009,08,07,09,11,14.80
2009,08,07,09,12,15.00
2009,08,07,09,13,15.00
2009,08,07,09,14,15.00
2009,08,07,09,15,15.00
2009,08,07,09,16,15.10
2009,08,07,09,17,15.20
2009,08,07,09,18,15.20
2009,08,07,09,19,15.30
2009,08,07,09,20,15.30
2009,08,07,09,21,15.30
2009,08,07,09,22,15.40
2009,08,07,09,23,15.40
2009,08,07,09,24,15.40
2009,08,07,09,25,15.40
2009,08,07,09,26,15.40
2009,08,07,09,27,15.40
2009,08,07,09,28,15.40
2009,08,07,09,29,15.40
2009,08,07,09,30,15.50
2009,08,07,09,31,15.50
2009,08,07,09,32,15.50
2009,08,07,09,33,15.50
2009,08,07,09,34,15.50
2009,08,07,09,35,15.40
2009,08,07,09,36,15.40
2009,08,07,09,37,15.40
2009,08,07,09,38,15.40
2009,08,07,09,39,15.50
2009,08,07,09,40,15.50
2009,08,07,09,41,15.50
2009,08,07,09,42,15.60
2009,08,07,09,43,15.60
2009,08,07,09,44,15.60
2009,08,07,09,45,15.60
2009,08,07,09,46,15.60
2009,08,07,09,47,15.60
2009,08,07,09,48,15.60
2009,08,07,09,49,15.70
2009,08,07,09,50,15.70
2009,08,07,09,51,15.70
2009,08,07,09,52,15.80
2009,08,07,09,53,15.80
2009,08,07,09,54,15.80
2009,08,07,09,55,15.90
2009,08,07,09,56,15.90
2009,08,07,09,57,16.00
2009,08,07,09,58,16.10
2009,08,07,09,59,16.10
2009,08,07,10,00,16.20
2009,08,07,10,01,16.20
2009,08,07,10,02,16.30
2009,08,07,10,03,16.30
2009,08,07,10,04,16.30
2009,08,07,10,05,16.40
2009,08,07,10,06,16.40
2009,08,07,10,07,16.40
2009,08,07,10,08,16.40
2009,08,07,10,09,16.40
2009,08,07,10,10,16.40
2009,08,07,10,11,16.40
2009,08,07,10,12,16.40
2009,08,07,10,13,16.50
2009,08,07,10,14,16.50
2009,08,07,10,15,16.50
2009,08,07,10,16,16.40
2009,08,07,10,17,16.40
2009,08,07,10,18,16.50
2009,08,07,10,19,16.50
2009,08,07,10,20,16.60
2009,08,07,10,21,16.60
2009,08,07,10,22,16.60
2009,08,07,10,23,16.60
2009,08,07,10,24,16.60
2009,08,07,10,25,16.60
2009,08,07,10,26,16.60
2009,08,07,10,27,16.60
2009,08,07,10,28,16.60
2009,08,07,10,29,16.60
2009,08,07,10,30,16.60
2009,08,07,10,31,16.60
2009,08,07,10,32,16.70
2009,08,07,10,33,16.70
2009,08,07,10,34,16.70
2009,08,07,10,35,16.80
2009,08,07,10,36,16.90
2009,08,07,10,37,16.90
2009,08,07,10,38,17.00
2009,08,07,10,39,17.10
2009,08,07,10,40,17.20
2009,08,07,10,41,17.20
2009,08,07,10,42,17.30
2009,08,07,10,43,17.30
2009,08,07,10,44,17.30
2009,08,07,10,45,17.30
2009,08,07,10,46,17.30
2009,08,07,10,47,17.30
2009,08,07,10,48,17.30
2009,08,07,10,49,17.40
2009,08,07,10,50,17.40
2009,08,07,10,51,17.40
2009,08,07,10,52,17.40
2009,08,07,10,53,17.50
2009,08,07,10,54,17.50
2009,08,07,10,55,17.50
2009,08,07,10,56,17.40
2009,08,07,10,57,17.30
2009,08,07,10,58,17.30
2009,08,07,10,59,17.30
2009,08,07,11,00,17.30
2009,08,07,11,01,17.30
2009,08,07,11,02,17.30
2009,08,07,11,03,17.40
2009,08,07,11,04,17.40
2009,08,07,11,05,17.40
2009,08,07,11,06,17.40
2009,08,07,11,07,17.40
2009,08,07,11,08,17.40
2009,08,07,11,09,17.50
2009,08,07,11,10,17.50
2009,08,07,11,11,17.50
2009,08,07,11,12,17.60
2009,08,07,11,13,17.60
2009,08,07,11,14,17.70
2009,08,07,11,15,17.80
2009,08,07,11,16,17.90
2009,08,07,11,17,18.00
2009,08,07,11,18,18.10
2009,08,07,11,19,18.20
2009,08,07,11,20,18.20
2009,08,07,11,21,18.20
2009,08,07,11,22,18.10
2009,08,07,11,23,18.00
2009,08,07,11,24,17.90
2009,08,07,11,25,18.00
2009,08,07,11,26,18.00
2009,08,07,11,27,18.10
2009,08,07,11,28,18.10
2009,08,07,11,29,18.10
2009,08,07,11,30,18.10
2009,08,07,11,31,18.10
2009,08,07,11,32,18.10
2009,08,07,11,33,18.20
2009,08,07,11,34,18.20
2009,08,07,11,35,18.30
2009,08,07,11,36,18.40
2009,08,07,11,37,18.40
2009,08,07,11,38,18.40
2009,08,07,11,39,18.40
2009,08,07,11,40,18.40
2009,08,07,11,41,18.40
2009,08,07,11,42,18.40
2009,08,07,11,43,18.40
2009,08,07,11,44,18.50
2009,08,07,11,45,18.50
2009,08,07,11,46,18.60
2009,08,07,11,47,18.60
2009,08,07,11,48,18.70
2009,08,07,11,49,18.70
2009,08,07,11,50,18.80
2009,08,07,11,51,18.80
2009,08,07,11,52,18.90
2009,08,07,11,53,18.90
2009,08,07,11,54,18.90
2009,08,07,11,55,19.00
2009,08,07,11,56,19.00
2009,08,07,11,57,19.10
2009,08,07,11,58,19.20
2009,08,07,11,59,19.20
2009,08,07,12,00,19.20
2009,08,07,12,01,19.30
2009,08,07,12,02,19.30
2009,08,07,12,03,19.30
2009,08,07,12,04,19.30
2009,08,07,12,05,19.30
2009,08,07,12,06,19.30
2009,08,07,12,07,19.30
2009,08,07,12,08,19.30
2009,08,07,12,09,19.30
2009,08,07,12,10,19.40
2009,08,07,12,11,19.50
2009,08,07,12,12,19.60
2009,08,07,12,13,19.70
2009,08,07,12,14,19.90
2009,08,07,12,15,20.00
2009,08,07,12,16,20.00
2009,08,07,12,17,19.90
2009,08,07,12,18,19.80
2009,08,07,12,19,19.80
2009,08,07,12,20,19.80
2009,08,07,12,21,19.80
2009,08,07,12,22,19.70
2009,08,07,12,23,19.50
2009,08,07,12,24,19.40
2009,08,07,12,25,19.40
2009,08,07,12,26,19.40
2009,08,07,12,27,19.40
2009,08,07,12,28,19.50
2009,08,07,12,29,19.50
2009,08,07,12,30,19.50
2009,08,07,12,31,19.40
2009,08,07,12,32,19.30
2009,08,07,12,33,19.30
2009,08,07,12,34,19.30
2009,08,07,12,35,19.40
2009,08,07,12,36,19.40
2009,08,07,12,37,19.50
2009,08,07,12,38,19.50
2009,08,07,12,39,19.60
2009,08,07,12,40,19.60
2009,08,07,12,41,19.70
2009,08,07,12,42,19.70
2009,08,07,12,43,19.70
2009,08,07,12,44,19.70
2009,08,07,12,45,19.70
2009,08,07,12,46,19.70
2009,08,07,12,47,19.70
2009,08,07,12,48,19.60
2009,08,07,12,49,19.50
2009,08,07,12,50,19.50
2009,08,07,12,51,19.40
2009,08,07,12,52,19.30
2009,08,07,12,53,19.30
2009,08,07,12,54,19.30
2009,08,07,12,55,19.40
2009,08,07,12,56,19.40
2009,08,07,12,57,19.50
2009,08,07,12,58,19.50
2009,08,07,12,59,19.60
2009,08,07,13,00,19.70
2009,08,07,13,01,19.70
2009,08,07,13,02,19.80
2009,08,07,13,03,19.80
2009,08,07,13,04,19.80
2009,08,07,13,05,19.80
2009,08,07,13,06,19.80
2009,08,07,13,07,19.70
2009,08,07,13,08,19.60
2009,08,07,13,09,19.50
2009,08,07,13,10,19.40
2009,08,07,13,11,19.40
2009,08,07,13,12,19.40
2009,08,07,13,13,19.40
2009,08,07,13,14,19.30
2009,08,07,13,15,19.30
2009,08,07,13,16,19.30
2009,08,07,13,17,19.30
2009,08,07,13,18,19.30
2009,08,07,13,19,19.30
2009,08,07,13,20,19.30
2009,08,07,13,21,19.30
2009,08,07,13,22,19.30
2009,08,07,13,23,19.20
2009,08,07,13,24,19.20
2009,08,07,13,25,19.20
2009,08,07,13,26,19.20
2009,08,07,13,27,19.20
2009,08,07,13,28,19.30
2009,08,07,13,29,19.30
2009,08,07,13,30,19.30
2009,08,07,13,31,19.30
2009,08,07,13,32,19.30
2009,08,07,13,33,19.30
2009,08,07,13,34,19.30
2009,08,07,13,35,19.20
2009,08,07,13,36,19.20
2009,08,07,13,37,19.20
2009,08,07,13,38,19.20
2009,08,07,13,39,19.20
2009,08,07,13,40,19.20
2009,08,07,13,41,19.20
2009,08,07,13,42,19.10
2009,08,07,13,43,19.10
2009,08,07,13,44,19.20
2009,08,07,13,45,19.20
2009,08,07,13,46,19.30
2009,08,07,13,47,19.30
2009,08,07,13,48,19.30
2009,08,07,13,49,19.40
2009,08,07,13,50,19.40
2009,08,07,13,51,19.50
2009,08,07,13,52,19.50
2009,08,07,13,53,19.60
2009,08,07,13,54,19.70
2009,08,07,13,55,19.70
2009,08,07,13,56,19.70
2009,08,07,13,57,19.70
2009,08,07,13,58,19.70
2009,08,07,13,59,19.60
2009,08,07,14,00,19.60
2009,08,07,14,01,19.60
2009,08,07,14,02,19.70
2009,08,07,14,03,19.70
2009,08,07,14,04,19.80
2009,08,07,14,05,19.80
2009,08,07,14,06,19.80
2009,08,07,14,07,19.80
2009,08,07,14,08,19.80
2009,08,07,14,09,19.90
2009,08,07,14,10,19.90
2009,08,07,14,11,20.00
2009,08,07,14,12,20.00
2009,08,07,14,13,20.00
2009,08,07,14,14,20.00
2009,08,07,14,15,19.80
2009,08,07,14,16,19.60
2009,08,07,14,17,19.40
2009,08,07,14,18,19.20
2009,08,07,14,19,19.20
2009,08,07,14,20,19.20
2009,08,07,14,21,19.20
2009,08,07,14,22,19.10
2009,08,07,14,23,19.00
2009,08,07,14,24,19.00
2009,08,07,14,25,18.90
2009,08,07,14,26,18.80
2009,08,07,14,27,18.80
2009,08,07,14,28,18.80
2009,08,07,14,29,18.80
2009,08,07,14,30,18.80
2009,08,07,14,31,18.70
2009,08,07,14,32,18.70
2009,08,07,14,33,18.70
2009,08,07,14,34,18.70
2009,08,07,14,35,18.70
2009,08,07,14,36,18.70
2009,08,07,14,37,18.70
2009,08,07,14,38,18.70
2009,08,07,14,39,18.80
2009,08,07,14,40,18.80
2009,08,07,14,41,18.90
2009,08,07,14,42,18.90
2009,08,07,14,43,18.90
2009,08,07,14,44,18.90
2009,08,07,14,45,19.00
2009,08,07,14,46,19.10
2009,08,07,14,47,19.10
2009,08,07,14,48,19.20
2009,08,07,14,49,19.30
2009,08,07,14,50,19.30
2009,08,07,14,51,19.40
2009,08,07,14,52,19.40
2009,08,07,14,53,19.50
2009,08,07,14,54,19.50
2009,08,07,14,55,19.60
2009,08,07,14,56,19.70
2009,08,07,14,57,19.80
2009,08,07,14,58,19.80
2009,08,07,14,59,19.90
2009,08,07,15,00,19.90
2009,08,07,15,01,20.00
2009,08,07,15,02,20.00
2009,08,07,15,03,20.00
2009,08,07,15,04,20.00
2009,08,07,15,05,20.00
2009,08,07,15,06,20.10
2009,08,07,15,07,20.20
2009,08,07,15,08,20.20
2009,08,07,15,09,20.20
2009,08,07,15,10,20.20
2009,08,07,15,11,20.20
2009,08,07,15,12,20.20
2009,08,07,15,13,20.20
2009,08,07,15,14,20.10
2009,08,07,15,15,20.00
2009,08,07,15,16,20.00
2009,08,07,15,17,19.90
2009,08,07,15,18,19.90
2009,08,07,15,19,19.80
2009,08,07,15,20,19.80
2009,08,07,15,21,19.70
2009,08,07,15,22,19.70
2009,08,07,15,23,19.70
2009,08,07,15,24,19.70
2009,08,07,15,25,19.70
2009,08,07,15,26,19.80
2009,08,07,15,27,19.80
2009,08,07,15,28,19.80
2009,08,07,15,29,19.80
2009,08,07,15,30,19.70
2009,08,07,15,31,19.70
2009,08,07,15,32,19.70
2009,08,07,15,33,19.80
2009,08,07,15,34,19.70
2009,08,07,15,35,19.70
2009,08,07,15,36,19.70
2009,08,07,15,37,19.70
2009,08,07,15,38,19.70
2009,08,07,15,39,19.70
2009,08,07,15,40,19.70
2009,08,07,15,41,19.70
2009,08,07,15,42,19.80
2009,08,07,15,43,19.70
2009,08,07,15,44,19.70
2009,08,07,15,45,19.80
2009,08,07,15,46,19.80
2009,08,07,15,47,19.80
2009,08,07,15,48,19.80
2009,08,07,15,49,19.70
2009,08,07,15,50,19.70
2009,08,07,15,51,19.70
2009,08,07,15,52,19.60
2009,08,07,15,53,19.60
2009,08,07,15,54,19.60
2009,08,07,15,55,19.60
2009,08,07,15,56,19.70
2009,08,07,15,57,19.70
2009,08,07,15,58,19.60
2009,08,07,15,59,19.60
2009,08,07,16,00,19.60
2009,08,07,16,01,19.60
2009,08,07,16,02,19.70
2009,08,07,16,03,19.70
2009,08,07,16,04,19.70
2009,08,07,16,05,19.70
2009,08,07,16,06,19.80
2009,08,07,16,07,19.80
2009,08,07,16,08,19.90
2009,08,07,16,09,19.90
2009,08,07,16,10,20.00
2009,08,07,16,11,20.00
2009,08,07,16,12,20.00
2009,08,07,16,13,20.00
2009,08,07,16,14,19.90
2009,08,07,16,15,19.90
2009,08,07,16,16,19.90
2009,08,07,16,17,20.00
2009,08,07,16,18,20.00
2009,08,07,16,19,20.10
2009,08,07,16,20,20.10
2009,08,07,16,21,20.10
2009,08,07,16,22,20.20
2009,08,07,16,23,20.20
2009,08,07,16,24,20.10
2009,08,07,16,25,20.10
2009,08,07,16,26,20.10
2009,08,07,16,27,20.20
2009,08,07,16,28,20.20
2009,08,07,16,29,20.10
2009,08,07,16,30,20.00
2009,08,07,16,31,20.00
2009,08,07,16,32,20.00
2009,08,07,16,33,19.90
2009,08,07,16,34,19.90
2009,08,07,16,35,19.80
2009,08,07,16,36,19.80
2009,08,07,16,37,19.80
2009,08,07,16,38,19.80
2009,08,07,16,39,19.80
2009,08,07,16,40,19.80
2009,08,07,16,41,19.70
2009,08,07,16,42,19.70
2009,08,07,16,43,19.70
2009,08,07,16,44,19.70
2009,08,07,16,45,19.70
2009,08,07,16,46,19.70
2009,08,07,16,47,19.70
2009,08,07,16,48,19.70
2009,08,07,16,49,19.80
2009,08,07,16,50,19.70
2009,08,07,16,51,19.70
2009,08,07,16,52,19.70
2009,08,07,16,53,19.60
2009,08,07,16,54,19.60
2009,08,07,16,55,19.60
2009,08,07,16,56,19.60
2009,08,07,16,57,19.60
2009,08,07,16,58,19.50
2009,08,07,16,59,19.50
2009,08,07,17,00,19.50
2009,08,07,17,01,19.50
2009,08,07,17,02,19.50
2009,08,07,17,03,19.60
2009,08,07,17,04,19.60
2009,08,07,17,05,19.60
2009,08,07,17,06,19.60
2009,08,07,17,07,19.50
2009,08,07,17,08,19.50
2009,08,07,17,09,19.50
2009,08,07,17,10,19.60
2009,08,07,17,11,19.60
2009,08,07,17,12,19.60
2009,08,07,17,13,19.60
2009,08,07,17,14,19.60
2009,08,07,17,15,19.60
2009,08,07,17,16,19.60
2009,08,07,17,17,19.60
2009,08,07,17,18,19.60
2009,08,07,17,19,19.70
2009,08,07,17,20,19.70
2009,08,07,17,21,19.70
2009,08,07,17,22,19.70
2009,08,07,17,23,19.70
2009,08,07,17,24,19.80
2009,08,07,17,25,19.80
2009,08,07,17,26,19.80
2009,08,07,17,27,19.90
2009,08,07,17,28,19.90
2009,08,07,17,29,19.90
2009,08,07,17,30,19.90
2009,08,07,17,31,19.90
2009,08,07,17,32,19.80
2009,08,07,17,33,19.80
2009,08,07,17,34,19.80
2009,08,07,17,35,19.70
2009,08,07,17,36,19.70
2009,08,07,17,37,19.70
2009,08,07,17,38,19.70
2009,08,07,17,39,19.70
2009,08,07,17,40,19.70
2009,08,07,17,41,19.70